AE5HO Weather Reports


Display with metric or nautical units.
time (UTC)temp
F
wind
direction
speed
MPH
gust
MPH
rain 1hr
in
rain 24hr
in
rain mn
in
humidity
%
barometer
mb
20260903222047 93 328 2.0 2.0 0.00 0.00 0.00 60 1011.2
20260903221543 93 183 3.0 3.0 0.00 0.00 0.00 60 1011.3
20260903221040 94 191 0.0 3.0 0.00 0.00 0.00 59 1011.1
20260903220534 94 324 3.0 3.0 0.00 0.00 0.00 59 1011.0
20260903220034 95 185 0.0 2.0 0.00 0.00 0.00 58 1011.2
20260903215533 94 261 0.0 3.0 0.00 0.00 0.00 59 1011.1
20260903215033 93 180 2.0 5.0 0.00 0.00 0.00 60 1011.2
20260903214532 93 203 1.0 3.0 0.00 0.00 0.00 61 1011.3
20260903214027 93 270 0.0 2.0 0.00 0.00 0.00 62 1011.3
20260903213523 93 213 2.0 3.0 0.00 0.00 0.00 60 1011.3
20260903213018 93 250 2.0 4.0 0.00 0.00 0.00 60 1011.5
20260903212514 93 8 0.0 2.0 0.00 0.00 0.00 61 1011.3
20260903212009 93 276 2.0 4.0 0.00 0.00 0.00 61 1011.4
20260903211504 93 270 3.0 7.0 0.00 0.00 0.00 60 1011.4
20260903211001 93 270 2.0 4.0 0.00 0.00 0.00 61 1011.6
20260903210501 93 270 0.0 5.0 0.00 0.00 0.00 61 1011.6
20260903205956 92 261 0.0 5.0 0.00 0.00 0.00 61 1011.9
20260903205455 92 258 3.0 8.0 0.00 0.00 0.00 62 1011.8
20260903204950 92 233 3.0 3.0 0.00 0.00 0.00 63 1011.9
20260903204447 93 183 2.0 2.0 0.00 0.00 0.00 62 1012.0
20260903203942 92 190 0.0 2.0 0.00 0.00 0.00 63 1012.0
20260903203437 93 180 3.0 4.0 0.00 0.00 0.00 62 1012.0
20260903202937 92 353 4.0 6.0 0.00 0.00 0.00 64 1012.2
20260903202433 93 0 2.0 4.0 0.00 0.00 0.00 64 1012.3
20260903201933 92 71 0.0 3.0 0.00 0.00 0.00 63 1012.3
20260903201429 91 251 2.0 4.0 0.00 0.00 0.00 65 1012.4
20260903200927 91 201 0.0 2.0 0.00 0.00 0.00 66 1012.5
20260903200422 91 186 3.0 5.0 0.00 0.00 0.00 65 1012.5
20260903195917 90 240 0.0 3.0 0.00 0.00 0.00 66 1012.3
20260903195414 91 196 0.0 3.0 0.00 0.00 0.00 65 1012.4
20260903194914 90 278 0.0 3.0 0.00 0.00 0.00 67 1012.5
20260903194409 90 98 3.0 3.0 0.00 0.00 0.00 67 1012.5
20260903193904 90 186 3.0 4.0 0.00 0.00 0.00 67 1012.4
20260903193401 91 90 0.0 5.0 0.00 0.00 0.00 67 1012.7
20260903192855 90 264 2.0 5.0 0.00 0.00 0.00 68 1012.8
20260903192352 90 288 0.0 9.0 0.00 0.00 0.00 68 1012.9
20260903191848 90 180 0.0 3.0 0.00 0.00 0.00 68 1012.8
20260903191344 91 33 0.0 3.0 0.00 0.00 0.00 68 1013.0
20260903190843 90 345 2.0 5.0 0.00 0.00 0.00 67 1013.1
20260903190338 90 203 0.0 4.0 0.00 0.00 0.00 68 1013.3
20260903185837 89 182 0.0 4.0 0.00 0.00 0.00 70 1013.3
20260903185332 89 95 2.0 4.0 0.00 0.00 0.00 70 1013.3
20260903184828 89 289 2.0 4.0 0.00 0.00 0.00 70 1013.4
20260903184326 88 201 5.0 6.0 0.00 0.00 0.00 71 1013.6
20260903183825 88 40 0.0 5.0 0.00 0.00 0.00 71 1013.7
20260903183320 89 346 0.0 4.0 0.00 0.00 0.00 70 1013.7
20260903182814 87 63 0.0 3.0 0.00 0.00 0.00 73 1013.6
20260903182313 87 198 0.0 3.0 0.00 0.00 0.00 73 1013.8
20260903181813 88 187 4.0 4.0 0.00 0.00 0.00 73 1013.9
20260903181309 88 41 2.0 2.0 0.00 0.00 0.00 72 1013.7
20260903180808 89 270 2.0 3.0 0.00 0.00 0.00 71 1013.6
20260903180308 89 270 0.0 3.0 0.00 0.00 0.00 72 1013.8
20260903175808 89 307 2.0 4.0 0.00 0.00 0.00 70 1013.7
20260903175307 89 185 3.0 4.0 0.00 0.00 0.00 70 1013.9
20260903174801 89 174 1.0 3.0 0.00 0.00 0.00 70 1013.7
20260903174257 89 114 2.0 5.0 0.00 0.00 0.00 70 1013.9
20260903173756 89 97 0.0 3.0 0.00 0.00 0.00 70 1014.1
20260903173253 89 71 0.0 3.0 0.00 0.00 0.00 71 1014.2
20260903172748 89 219 3.0 5.0 0.00 0.00 0.00 71 1014.1
20260903172242 89 253 0.0 5.0 0.00 0.00 0.00 71 1014.4
20260903171738 88 209 0.0 3.0 0.00 0.00 0.00 71 1014.3
20260903171233 89 201 2.0 5.0 0.00 0.00 0.00 71 1014.2
20260903170732 89 186 1.0 4.0 0.00 0.00 0.00 71 1014.5
20260903170228 88 106 0.0 3.0 0.00 0.00 0.00 73 1014.1
20260903165726 89 308 3.0 5.0 0.00 0.00 0.00 71 1014.5
20260903165221 88 106 0.0 2.0 0.00 0.00 0.00 73 1014.5
20260903164721 87 305 2.0 3.0 0.00 0.00 0.00 73 1014.1
20260903164217 87 117 2.0 7.0 0.00 0.00 0.00 74 1014.6
20260903163716 86 270 3.0 3.0 0.00 0.00 0.00 75 1014.5
20260903163213 86 257 0.0 2.0 0.00 0.00 0.00 76 1014.2
20260903162709 86 70 0.0 5.0 0.00 0.00 0.00 76 1014.3
20260903162205 86 120 0.0 2.0 0.00 0.00 0.00 76 1014.4
20260903161700 86 194 0.0 2.0 0.00 0.00 0.00 76 1014.6
20260903161155 85 270 1.0 2.0 0.00 0.00 0.00 77 1014.4
20260903160651 85 334 0.0 2.0 0.00 0.00 0.00 78 1014.7
20260903160145 84 98 0.0 4.0 0.00 0.00 0.00 78 1014.6
20260903155644 84 16 0.0 2.0 0.00 0.00 0.00 79 1014.5
20260903155139 84 90 1.0 2.0 0.00 0.00 0.00 79 1014.5
20260903154635 83 192 2.0 2.0 0.00 0.00 0.00 80 1014.5
20260903154131 83 96 2.0 2.0 0.00 0.00 0.00 80 1014.4
20260903153626 83 172 0.0 2.0 0.00 0.00 0.00 80 1014.3
20260903153122 82 105 0.0 2.0 0.00 0.00 0.00 81 1014.4
20260903152618 82 180 2.0 3.0 0.00 0.00 0.00 81 1014.3
20260903152114 82 270 0.0 2.0 0.00 0.00 0.00 81 1014.3
20260903151613 82 106 0.0 3.0 0.00 0.00 0.00 81 1014.4
20260903151108 82 195 0.0 2.0 0.00 0.00 0.00 82 1014.4
20260903150608 82 80 2.0 3.0 0.00 0.00 0.00 81 1014.3
20260903145602 82 80 2.0 3.0 0.00 0.00 0.00 82 1014.2
20260903145058 81 180 0.0 3.0 0.00 0.00 0.00 82 1014.1
20260903144556 81 199 2.0 2.0 0.00 0.00 0.00 82 1014.5
20260903144053 81 195 0.0 3.0 0.00 0.00 0.00 83 1014.4
20260903143549 81 184 0.0 2.0 0.00 0.00 0.00 83 1014.7
20260903143044 80 190 0.0 2.0 0.00 0.00 0.00 83 1014.2
20260903142540 80 103 2.0 5.0 0.00 0.00 0.00 83 1014.6
20260903142037 80 0 0.0 2.0 0.00 0.00 0.00 82 1014.7
20260903141532 80 200 1.0 2.0 0.00 0.00 0.00 82 1014.7
20260903141027 80 185 0.0 3.0 0.00 0.00 0.00 82 1014.5
20260903140523 80 57 0.0 2.0 0.00 0.00 0.00 82 1014.4
20260903140018 80 203 0.0 1.0 0.00 0.00 0.00 82 1014.5
20260903135513 80 246 0.0 2.0 0.00 0.00 0.00 82 1014.3
20260903135013 80 188 1.0 3.0 0.00 0.00 0.00 82 1014.3
20260903134513 80 194 0.0 1.0 0.00 0.00 0.00 83 1014.4
20260903134009 80 228 0.0 2.0 0.00 0.00 0.00 83 1014.4
20260903133506 79 188 0.0 3.0 0.00 0.00 0.00 83 1014.3
20260903133001 79 203 0.0 2.0 0.00 0.00 0.00 83 1014.2
20260903132457 79 185 0.0 3.0 0.00 0.00 0.00 83 1014.2
20260903131957 79 187 0.0 3.0 0.00 0.00 0.00 83 1014.4
20260903131452 79 180 0.0 1.0 0.00 0.00 0.00 83 1014.0
20260903130951 79 180 0.0 2.0 0.00 0.00 0.00 83 1014.2
20260903130446 79 188 0.0 0.0 0.00 0.00 0.00 82 1014.3
20260903125945 79 180 0.0 0.0 0.00 0.00 0.00 82 1014.1
20260903125445 79 180 1.0 2.0 0.00 0.00 0.00 82 1014.4
20260903124944 79 172 0.0 1.0 0.00 0.00 0.00 82 1014.1
20260903124440 78 194 0.0 2.0 0.00 0.00 0.00 82 1014.0
20260903123939 78 195 0.0 3.0 0.00 0.00 0.00 82 1014.0
20260903123434 78 99 0.0 1.0 0.00 0.00 0.00 83 1014.0
20260903122933 78 165 1.0 2.0 0.00 0.00 0.00 83 1013.8
20260903122433 77 209 0.0 0.0 0.00 0.00 0.00 84 1013.9
20260903121931 77 209 0.0 0.0 0.00 0.00 0.00 83 1013.6
20260903121427 77 195 0.0 1.0 0.00 0.00 0.00 84 1013.9
20260903120923 77 187 0.0 1.0 0.00 0.00 0.00 83 1014.1
20260903120422 77 180 0.0 0.0 0.00 0.00 0.00 83 1013.7
20260903115921 77 172 0.0 0.0 0.00 0.00 0.00 84 1013.8
20260903115420 77 198 0.0 0.0 0.00 0.00 0.00 84 1013.6
20260903114920 77 188 0.0 0.0 0.00 0.00 0.00 84 1013.6
20260903114416 77 180 0.0 0.0 0.00 0.00 0.00 84 1013.6
20260903113912 77 180 0.0 0.0 0.00 0.00 0.00 83 1013.9
20260903113407 78 180 0.0 0.0 0.00 0.00 0.00 83 1013.7
20260903112903 78 195 0.0 0.0 0.00 0.00 0.00 84 1013.7
20260903112359 78 195 0.0 0.0 0.00 0.00 0.00 83 1013.9
20260903111857 78 195 0.0 0.0 0.00 0.00 0.00 84 1014.0
20260903111357 78 195 0.0 0.0 0.00 0.00 0.00 84 1013.6
20260903110853 78 180 0.0 0.0 0.00 0.00 0.00 83 1013.7
20260903110349 78 180 0.0 1.0 0.00 0.00 0.00 83 1013.5
20260903105844 78 180 0.0 0.0 0.00 0.00 0.00 83 1013.6
20260903105339 78 180 0.0 0.0 0.00 0.00 0.00 82 1013.6
20260903104838 78 180 0.0 0.0 0.00 0.00 0.00 82 1013.5
20260903104333 78 180 0.0 1.0 0.00 0.00 0.00 82 1013.5
20260903103830 78 246 0.0 0.0 0.00 0.00 0.00 81 1013.4
20260903103326 79 246 0.0 0.0 0.00 0.00 0.00 81 1013.3
20260903102822 79 246 0.0 0.0 0.00 0.00 0.00 80 1013.4
20260903102321 80 180 0.0 0.0 0.00 0.00 0.00 79 1013.4
20260903101821 80 180 0.0 0.0 0.00 0.00 0.00 78 1013.4
20260903101316 80 180 0.0 0.0 0.00 0.00 0.00 78 1013.3
20260903100812 80 82 0.0 1.0 0.00 0.00 0.00 78 1013.1
20260903100311 80 279 1.0 2.0 0.00 0.00 0.00 78 1013.5
20260903095809 80 180 0.0 1.0 0.00 0.00 0.00 79 1013.7
20260903095309 80 180 0.0 1.0 0.00 0.00 0.00 79 1013.7
20260903094804 80 186 0.0 2.0 0.00 0.00 0.00 79 1013.7
20260903094259 80 180 0.0 1.0 0.00 0.00 0.00 80 1013.6
20260903093755 80 195 0.0 1.0 0.00 0.00 0.00 80 1013.7
20260903093250 80 254 1.0 2.0 0.00 0.00 0.00 80 1013.7
20260903092750 80 261 0.0 2.0 0.00 0.00 0.00 80 1013.7
20260903092245 80 195 0.0 1.0 0.00 0.00 0.00 81 1013.6
20260903091743 80 195 0.0 1.0 0.00 0.00 0.00 81 1013.4
20260903091238 79 261 0.0 1.0 0.00 0.00 0.00 81 1013.3
20260903090734 79 195 0.0 0.0 0.00 0.00 0.00 82 1013.5
20260903090232 79 195 0.0 0.0 0.00 0.00 0.00 81 1013.5
20260903085731 80 195 0.0 0.0 0.00 0.00 0.00 81 1013.5
20260903085226 80 180 0.0 1.0 0.00 0.00 0.00 80 1013.4
20260903084724 80 188 0.0 2.0 0.00 0.00 0.00 80 1013.1
20260903084220 80 180 0.0 2.0 0.00 0.00 0.00 79 1013.4
20260903083715 80 180 0.0 0.0 0.00 0.00 0.00 79 1013.1
20260903083215 80 187 1.0 1.0 0.00 0.00 0.00 79 1013.5
20260903082714 80 160 0.0 2.0 0.00 0.00 0.00 78 1013.4
20260903082211 81 195 0.0 0.0 0.00 0.00 0.00 78 1013.3
20260903081710 80 172 0.0 1.0 0.00 0.00 0.00 78 1013.4
20260903081206 80 188 0.0 1.0 0.00 0.00 0.00 79 1013.5
20260903080702 80 194 0.0 2.0 0.00 0.00 0.00 78 1013.3
20260903080200 80 180 0.0 1.0 0.00 0.00 0.00 79 1013.6
20260903075659 80 180 0.0 0.0 0.00 0.00 0.00 79 1013.6
20260903075154 80 188 0.0 1.0 0.00 0.00 0.00 79 1013.4
20260903074653 80 180 0.0 0.0 0.00 0.00 0.00 80 1013.5
20260903074148 80 195 0.0 1.0 0.00 0.00 0.00 79 1013.5
20260903073643 80 180 0.0 1.0 0.00 0.00 0.00 79 1013.3
20260903073139 80 180 0.0 1.0 0.00 0.00 0.00 79 1013.5
20260903072635 80 203 1.0 1.0 0.00 0.00 0.00 79 1013.3
20260903072131 80 188 0.0 1.0 0.00 0.00 0.00 80 1013.7
20260903071627 80 188 0.0 0.0 0.00 0.00 0.00 79 1013.4
20260903071123 80 188 0.0 0.0 0.00 0.00 0.00 78 1013.6
20260903070622 80 188 0.0 1.0 0.00 0.00 0.00 78 1013.4
20260903070118 80 188 0.0 1.0 0.00 0.00 0.00 78 1013.4
20260903065617 80 195 0.0 1.0 0.00 0.00 0.00 78 1013.5
20260903065112 80 180 0.0 0.0 0.00 0.00 0.00 77 1013.5
20260903064611 80 195 0.0 1.0 0.00 0.00 0.00 77 1013.6
20260903064107 81 270 0.0 1.0 0.00 0.00 0.00 78 1013.5
20260903063602 80 187 0.0 2.0 0.00 0.00 0.00 77 1013.7
20260903063058 80 180 0.0 0.0 0.00 0.00 0.00 77 1013.8
20260903062553 80 180 1.0 3.0 0.00 0.00 0.00 77 1013.7
20260903062048 81 174 0.0 2.0 0.00 0.00 0.00 77 1013.9
20260903061544 81 180 1.0 2.0 0.00 0.00 0.00 76 1014.2
20260903061043 81 255 0.0 2.0 0.00 0.00 0.00 76 1014.2
20260903060543 81 195 0.0 2.0 0.00 0.00 0.00 76 1014.1
20260903060038 82 5 2.0 3.0 0.00 0.00 0.00 74 1013.9
20260903055536 82 180 0.0 3.0 0.00 0.00 0.00 74 1014.1
20260903055035 82 198 1.0 3.0 0.00 0.00 0.00 73 1014.3
20260903054530 82 186 0.0 2.0 0.00 0.00 0.00 73 1014.3
20260903054026 82 66 0.0 2.0 0.00 0.00 0.00 72 1014.5
20260903053526 82 82 1.0 3.0 0.00 0.00 0.00 72 1014.2
20260903053022 83 199 0.0 3.0 0.00 0.00 0.00 71 1014.2
20260903052518 83 169 0.0 3.0 0.00 0.00 0.00 70 1014.3
20260903052014 83 180 1.0 2.0 0.00 0.00 0.00 70 1014.1
20260903051514 83 180 0.0 5.0 0.00 0.00 0.00 69 1013.8
20260903051010 84 225 0.0 4.0 0.00 0.00 0.00 69 1014.0
20260903050508 84 291 1.0 3.0 0.00 0.00 0.00 69 1014.0
20260903050004 84 174 0.0 2.0 0.00 0.00 0.00 68 1014.1
20260903045459 84 180 0.0 2.0 0.00 0.00 0.00 68 1013.8
20260903044955 84 264 2.0 7.0 0.00 0.00 0.00 68 1013.9
20260903044450 84 240 0.0 3.0 0.00 0.00 0.00 67 1014.0
20260903043946 84 190 0.0 2.0 0.00 0.00 0.00 67 1013.9
20260903043442 85 180 0.0 1.0 0.00 0.00 0.00 67 1014.1
20260903042940 85 192 0.0 1.0 0.00 0.00 0.00 66 1013.9
20260903042436 85 184 0.0 2.0 0.00 0.00 0.00 66 1013.9
20260903041931 85 172 0.0 2.0 0.00 0.00 0.00 65 1014.1
20260903041428 85 180 1.0 3.0 0.00 0.00 0.00 65 1014.0
20260903040924 85 192 1.0 2.0 0.00 0.00 0.00 65 1014.0
20260903040422 85 186 3.0 3.0 0.00 0.00 0.00 64 1014.0
20260903035919 86 186 0.0 2.0 0.00 0.00 0.00 64 1013.8
20260903035414 86 166 0.0 5.0 0.00 0.00 0.00 64 1014.0
20260903034914 86 173 1.0 3.0 0.00 0.00 0.00 63 1014.0
20260903034409 86 185 3.0 3.0 0.00 0.00 0.00 63 1013.9
20260903033904 86 212 2.0 3.0 0.00 0.00 0.00 62 1014.1
20260903033400 87 202 0.0 3.0 0.00 0.00 0.00 62 1014.1
20260903032900 87 180 4.0 4.0 0.00 0.00 0.00 61 1014.0
20260903032355 87 165 1.0 5.0 0.00 0.00 0.00 60 1014.0
20260903031851 87 111 0.0 3.0 0.00 0.00 0.00 61 1013.8
20260903031350 88 154 2.0 6.0 0.00 0.00 0.00 60 1014.0
20260903030845 88 74 1.0 3.0 0.00 0.00 0.00 60 1013.8
20260903030341 88 195 1.0 3.0 0.00 0.00 0.00 60 1013.6
20260903025837 89 199 2.0 4.0 0.00 0.00 0.00 59 1013.6
20260903025332 89 200 3.0 3.0 0.00 0.00 0.00 58 1013.6
20260903024832 89 270 1.0 4.0 0.00 0.00 0.00 58 1013.4
20260903024332 90 270 0.0 2.0 0.00 0.00 0.00 57 1013.3
20260903023827 90 194 1.0 4.0 0.00 0.00 0.00 56 1013.3
20260903023323 90 21 0.0 5.0 0.00 0.00 0.00 56 1013.3
20260903022818 90 180 2.0 4.0 0.00 0.00 0.00 54 1013.1
20260903022317 91 188 2.0 4.0 0.00 0.00 0.00 53 1013.1
20260903021817 91 198 0.0 3.0 0.00 0.00 0.00 52 1012.8
20260903021313 91 203 0.0 2.0 0.00 0.00 0.00 52 1012.9
20260903020812 91 270 0.0 2.0 0.00 0.00 0.00 52 1012.8
20260903020307 92 184 2.0 3.0 0.00 0.00 0.00 52 1012.7
20260903015802 92 203 1.0 3.0 0.00 0.00 0.00 52 1012.6
20260903015258 92 187 2.0 3.0 0.00 0.00 0.00 52 1012.8
20260903014753 92 195 0.0 3.0 0.00 0.00 0.00 52 1012.8
20260903014252 92 192 1.0 5.0 0.00 0.00 0.00 53 1012.5
20260903013747 92 217 0.0 3.0 0.00 0.00 0.00 52 1012.5
20260903013246 92 180 1.0 3.0 0.00 0.00 0.00 52 1012.5
20260903012745 93 192 2.0 3.0 0.00 0.00 0.00 52 1012.3
20260903012246 93 191 0.0 3.0 0.00 0.00 0.00 52 1012.4
20260903011745 93 162 0.0 4.0 0.00 0.00 0.00 53 1012.2
20260903011244 93 187 0.0 3.0 0.00 0.00 0.00 52 1012.5
20260903010740 93 203 0.0 2.0 0.00 0.00 0.00 52 1012.1
20260903010236 93 188 2.0 3.0 0.00 0.00 0.00 52 1012.2
20260903005734 93 183 2.0 2.0 0.00 0.00 0.00 52 1012.0
20260903005229 94 270 0.0 2.0 0.00 0.00 0.00 52 1012.0
20260903004725 94 216 0.0 2.0 0.00 0.00 0.00 52 1012.2
20260903004220 94 191 0.0 3.0 0.00 0.00 0.00 51 1012.3
20260903003715 94 177 0.0 5.0 0.00 0.00 0.00 51 1012.2
20260903003210 95 198 2.0 3.0 0.00 0.00 0.00 51 1012.3
20260903002700 95 173 0.0 2.0 0.00 0.00 0.00 50 1012.1
20260903002200 96 185 2.0 3.0 0.00 0.00 0.00 49 1011.9
20260903001655 96 214 2.0 2.0 0.00 0.00 0.00 49 1011.9
20260903001154 96 187 1.0 4.0 0.00 0.00 0.00 48 1012.0
20260903000650 97 234 2.0 3.0 0.00 0.00 0.00 48 1011.9
20260903000150 97 261 0.0 2.0 0.00 0.00 0.00 48 1011.9
20260902235649 98 204 0.0 3.0 0.00 0.00 0.00 46 1011.9
20260902235144 99 235 3.0 4.0 0.00 0.00 0.00 43 1012.0
20260902234643 99 175 0.0 2.0 0.00 0.00 0.00 43 1011.8
20260902234142 98 166 0.0 3.0 0.00 0.00 0.00 43 1011.7
20260902233637 99 206 0.0 3.0 0.00 0.00 0.00 42 1011.8
20260902233137 99 191 0.0 3.0 0.00 0.00 0.00 41 1011.8
20260902232636 99 180 0.0 4.0 0.00 0.00 0.00 41 1011.8
20260902232135 99 237 0.0 2.0 0.00 0.00 0.00 41 1011.8
20260902231635 99 206 2.0 3.0 0.00 0.00 0.00 41 1011.9
20260902231130 100 195 0.0 2.0 0.00 0.00 0.00 41 1011.6
20260902230626 100 169 0.0 3.0 0.00 0.00 0.00 41 1011.9
20260902230124 100 195 1.0 1.0 0.00 0.00 0.00 40 1011.8
20260902225619 100 176 0.0 3.0 0.00 0.00 0.00 40 1011.6
20260902225119 100 72 2.0 4.0 0.00 0.00 0.00 41 1011.6
20260902224618 100 0 0.0 3.0 0.00 0.00 0.00 40 1011.7
20260902224114 100 185 0.0 3.0 0.00 0.00 0.00 40 1011.9
20260902223610 100 180 0.0 2.0 0.00 0.00 0.00 42 1011.8
20260902223109 100 164 0.0 3.0 0.00 0.00 0.00 41 1011.7
20260902222608 100 176 0.0 2.0 0.00 0.00 0.00 41 1011.9